GALAXY 31 (G-31) (54243 NORAD) Tracking and Keplerian Element Data

This shows tracking and keplerian element data for the satellite.

Feedback or suggestion? Click here.




ElementValue
Catalog54243
NameGALAXY 31 (G-31)
Epoch Orbit60
Epoch Day13.69007714
Epoch Year2023
RAAN261.6388
Inclination0.0873
Eccentricity0.0002162
Argument of Perigee35.1247
Mean Anonmoly291.5023
Mean Motion1.00468565
Decay Rate7.7E-07
L11 54243U 22153A 23013.69007714 .00000077 00000+0 00000+0 0 9996
L22 54243 0.0873 261.6388 0002162 35.1247 291.5023 1.00468565 608



Live tracking and technical data element details for GALAXY 31 (G-31) (NORAD 54243). GALAXY 31 (G-31) can be tracked NOW for your location showing map with azimuth and elevation plus other details from your city location.







IsCatalogInMostPopularTable: catalog: 54243, numindb: 10
Update: records affected: 1



GetName: 54243 GALAXY 31 (G-31)

Hit Count: updated at: Fri, 27 Jan 2023 20:15:05 GMT